Home   Weather   Yonkers   Past weeks

Flag for USA Past Weather in Yonkers, New York, USA — Yesterday and Last 2 Weeks

Now
76 °F

Mostly cloudy.


Feels Like: 78 °F
Forecast: 67 / 81 °F
Wind: 17 mph from Northwest

Location: Teterboro Airport

Current Time: Jun 25, 2017 at 4:43:56 pm

Latest Report: Jun 25, 2017 at 2:58 pm


Visibility: 10 mi

Pressure: 29.93 "Hg

Humidity: 56%

Dew Point: 59 °F

Location of YonkersLocation

Past Weather in Yonkers — Graph

°F

Yonkers Temperature Yesterday

Maximum temperature yesterday: 84 °F (at 12:51 pm)
Minimum temperature yesterday: 71 °F (at 7:51 am)
Average temperature yesterday: 78 °F

High & Low Weather Summary for the Past Weeks

 TemperatureHumidityPressure
High96 °F (Jun 13, 4:03 pm)100% (Jun 24, 6:35 am)30.06 "Hg (Jun 24, 6:35 am)
Low63 °F (Jun 15, 2:51 am)33% (Jun 12, 3:51 pm)29.56 "Hg (Jun 24, 7:07 am)
Average77 °F66%29.89 "Hg
* Reported Jun 10 2:51 pm — Jun 25 2:58 pm, Yonkers. Weather by CustomWeather, © 2017

Note: Actual official high and low records may vary slightly from our data, if they occured in-between our weather recording intervals... More about our weather records

Advertising

Yonkers Weather History for the Previous 24 Hours

Scroll right to see more
 ConditionsComfort  
Time TempWeatherWind HumidityBarometerVisibility
2:58 pm
Sun, Jun 25
76 °FMostly cloudy.17 mph56%29.93 "Hg10 mi
1:51 pm84 °FPassing clouds.12 mph36%29.92 "Hg10 mi
12:51 pm83 °FScattered clouds.14 mph37%29.95 "Hg10 mi
11:51 am81 °FPartly sunny.8 mph38%29.96 "Hg10 mi
10:51 am80 °FSunny.7 mph42%29.97 "Hg10 mi
9:51 am78 °FSunny.No wind45%29.98 "Hg10 mi
8:51 am75 °FPassing clouds.No wind55%29.98 "Hg10 mi
7:51 am72 °FSunny.No wind66%29.98 "Hg10 mi
6:51 am70 °FSunny.No wind71%29.97 "Hg10 mi
5:51 am67 °FSunny.No wind76%29.95 "Hg10 mi
4:51 am68 °FClear.3 mph73%29.93 "Hg10 mi
3:51 am69 °FClear.3 mph70%29.91 "Hg10 mi
2:51 am71 °FOvercast.7 mph66%29.91 "Hg10 mi
1:51 am71 °FPassing clouds.5 mph66%29.90 "Hg10 mi
12:51 am73 °FClear.9 mph62%29.91 "Hg10 mi
11:51 pm
Sat, Jun 24
77 °FClear.13 mph54%29.90 "Hg10 mi
10:51 pm78 °FClear.8 mph52%29.87 "Hg10 mi
9:51 pm80 °FClear.10 mph49%29.86 "Hg10 mi
8:51 pm81 °FClear.12 mph45%29.82 "Hg10 mi
7:51 pm82 °FSunny.9 mph41%29.81 "Hg10 mi
6:51 pm84 °FSunny.9 mph36%29.79 "Hg10 mi
5:51 pm84 °FSunny.10 mph36%29.78 "Hg10 mi
4:51 pm83 °FSunny.13 mph37%29.78 "Hg10 mi
Weather by CustomWeather, © 2017

See weather overviewHow to use our weather pages